Tracking 19636 objects as of 25-May-2019
HD Live streaming from Space Station
objects crossing your sky now

AYAME 1 (ECS 1)

Track AYAME 1 (ECS 1) now!
AYAME 1 (ECS 1) is classified as:


NORAD ID: 11261
Int'l Code: 1979-009A
Perigee: 12,530.2 km
Apogee: 34,371.2 km
Inclination: 9.2 °
Period: 854.2 minutes
Semi major axis: 29821 km
RCS: 0.2528 m2 (medium)
Launch date: February 6, 1979
Source: Japan (JPN)
Launch site: TANEGASHIMA SPACE CENTER (TNSTA)
aabbcc
Your satellite tracking list
Your tracking list is empty




NASA's NSSDC Master Catalog

Two Line Element Set (TLE):
1 11261U 79009A   19144.39320972 -.00000104  00000-0  00000+0 0  9995
2 11261   9.2353  82.1262 3661925 209.2985 325.2711  1.68579150132631
Source of the keplerian elements: AFSPC